TimeEDT,TemperatureF,Dew PointF,Humidity,Sea Level PressureIn,VisibilityMPH,Wind Direction,Wind SpeedMPH,Gust SpeedMPH,PrecipitationIn,Events,Conditions,WindDirDegrees,DateUTC
12:16 AM,43.7,38.3,81,29.70,10.0,SE,13.8,24.2,N/A,,Overcast,140,2013-05-15 04:16:00
12:35 AM,43.7,38.3,81,29.70,10.0,SE,15.0,20.7,N/A,,Overcast,130,2013-05-15 04:35:00
12:56 AM,43.3,38.3,82,29.67,10.0,SE,13.8,20.7,N/A,,Mostly Cloudy,140,2013-05-15 04:56:00
1:15 AM,43.0,38.3,84,29.66,10.0,SSE,13.8,21.9,N/A,,Scattered Clouds,150,2013-05-15 05:15:00
1:35 AM,43.5,38.7,83,29.65,10.0,SE,15.0,19.6,N/A,,Mostly Cloudy,140,2013-05-15 05:35:00
1:56 AM,43.3,38.7,84,29.63,10.0,SE,15.0,21.9,N/A,,Mostly Cloudy,140,2013-05-15 05:56:00
2:15 AM,43.5,38.8,84,29.62,10.0,SE,16.1,23.0,N/A,,Mostly Cloudy,130,2013-05-15 06:15:00
2:35 AM,43.2,38.8,85,29.59,10.0,SE,12.7,21.9,N/A,,Scattered Clouds,130,2013-05-15 06:35:00
2:56 AM,42.8,39.0,86,29.57,10.0,SE,12.7,18.4,N/A,,Scattered Clouds,130,2013-05-15 06:56:00
3:15 AM,42.8,38.8,86,29.54,10.0,ESE,15.0,25.3,N/A,,Scattered Clouds,120,2013-05-15 07:15:00
3:36 AM,42.8,39.0,86,29.51,10.0,SE,13.8,23.0,N/A,,Scattered Clouds,130,2013-05-15 07:36:00
3:56 AM,43.0,39.2,86,29.50,10.0,SE,17.3,24.2,N/A,,Clear,130,2013-05-15 07:56:00
4:15 AM,42.4,38.8,87,29.48,10.0,SE,18.4,24.2,N/A,,Clear,140,2013-05-15 08:15:00
4:36 AM,42.3,38.8,88,29.48,10.0,SE,13.8,24.2,N/A,,Clear,140,2013-05-15 08:36:00
4:56 AM,41.9,38.7,88,29.49,10.0,SSE,8.1,20.7,N/A,,Clear,150,2013-05-15 08:56:00
5:15 AM,41.9,38.7,88,29.48,10.0,SE,11.5,17.3,N/A,,Clear,140,2013-05-15 09:15:00
5:36 AM,41.4,38.5,89,29.48,10.0,SE,10.4,-,N/A,,Clear,140,2013-05-15 09:36:00
5:56 AM,41.4,38.7,90,29.48,7.0,SE,10.4,18.4,N/A,,Clear,140,2013-05-15 09:56:00
6:15 AM,41.4,38.7,90,29.48,7.0,SE,8.1,16.1,N/A,,Clear,140,2013-05-15 10:15:00
6:36 AM,41.0,38.7,91,29.48,7.0,SSE,6.9,-,N/A,,Clear,150,2013-05-15 10:36:00
6:55 AM,41.4,38.8,91,29.49,7.0,SE,6.9,-,N/A,,Clear,140,2013-05-15 10:55:00
7:15 AM,42.1,39.2,90,29.49,7.0,SE,3.5,-,N/A,,Clear,140,2013-05-15 11:15:00
7:36 AM,42.8,39.4,88,29.50,7.0,SE,3.5,-,N/A,,Clear,140,2013-05-15 11:36:00
7:55 AM,44.2,40.3,86,29.50,7.0,Calm,Calm,-,N/A,,Clear,0,2013-05-15 11:55:00
8:16 AM,45.5,40.6,83,29.51,10.0,Calm,Calm,-,N/A,,Clear,0,2013-05-15 12:16:00
8:36 AM,47.3,41.4,80,29.52,10.0,WNW,3.5,-,N/A,,Clear,300,2013-05-15 12:36:00
9:16 AM,48.0,41.5,78,29.54,10.0,West,8.1,-,N/A,,Clear,270,2013-05-15 13:16:00
9:36 AM,49.3,41.9,76,29.55,10.0,WNW,8.1,16.1,N/A,,Clear,300,2013-05-15 13:36:00
9:55 AM,52.3,42.8,70,29.54,10.0,NW,11.5,16.1,N/A,,Clear,310,2013-05-15 13:55:00
10:16 AM,53.4,43.0,68,29.55,10.0,WNW,11.5,26.5,N/A,,Clear,300,2013-05-15 14:16:00
10:36 AM,53.1,43.2,69,29.56,10.0,WNW,13.8,23.0,N/A,,Scattered Clouds,300,2013-05-15 14:36:00
10:55 AM,52.9,43.3,70,29.56,10.0,WNW,18.4,26.5,N/A,,Clear,290,2013-05-15 14:55:00
11:16 AM,53.2,43.7,70,29.58,10.0,NW,9.2,20.7,N/A,,Clear,310,2013-05-15 15:16:00
11:35 AM,55.6,44.2,66,29.59,10.0,NW,16.1,21.9,N/A,,Clear,310,2013-05-15 15:35:00
11:55 AM,55.8,44.6,66,29.61,10.0,WNW,9.2,24.2,N/A,,Clear,300,2013-05-15 15:55:00
12:16 PM,56.7,44.8,64,29.62,10.0,WNW,12.7,25.3,N/A,,Clear,300,2013-05-15 16:16:00
12:35 PM,55.9,44.6,66,29.63,10.0,WNW,15.0,23.0,N/A,,Mostly Cloudy,300,2013-05-15 16:35:00
12:56 PM,55.4,45.1,68,29.64,10.0,WNW,12.7,21.9,N/A,,Overcast,300,2013-05-15 16:56:00
1:16 PM,57.7,46.2,65,29.64,10.0,WNW,11.5,24.2,N/A,,Mostly Cloudy,300,2013-05-15 17:16:00
1:35 PM,59.4,46.4,62,29.64,10.0,NW,12.7,24.2,N/A,,Clear,310,2013-05-15 17:35:00
1:56 PM,61.5,46.8,58,29.65,10.0,NW,6.9,23.0,N/A,,Clear,320,2013-05-15 17:56:00
2:16 PM,62.4,45.7,54,29.65,10.0,WNW,9.2,20.7,N/A,,Clear,300,2013-05-15 18:16:00
2:35 PM,65.7,44.8,47,29.64,10.0,NNW,12.7,19.6,N/A,,Clear,330,2013-05-15 18:35:00
2:56 PM,64.8,43.2,45,29.64,10.0,NW,12.7,20.7,N/A,,Clear,310,2013-05-15 18:56:00
3:15 PM,65.3,43.2,45,29.64,10.0,NW,11.5,23.0,N/A,,Clear,320,2013-05-15 19:15:00
3:35 PM,64.6,41.9,44,29.65,10.0,NNW,11.5,19.6,N/A,,Clear,330,2013-05-15 19:35:00
3:56 PM,65.3,40.1,40,29.65,10.0,NNW,11.5,20.7,N/A,,Clear,330,2013-05-15 19:56:00
4:15 PM,64.8,39.4,39,29.65,10.0,NNW,11.5,20.7,N/A,,Clear,330,2013-05-15 20:15:00
4:36 PM,65.3,40.1,40,29.65,10.0,NNW,6.9,18.4,N/A,,Clear,330,2013-05-15 20:36:00
4:56 PM,65.7,40.3,39,29.65,10.0,NW,9.2,19.6,N/A,,Clear,320,2013-05-15 20:56:00
5:15 PM,65.1,40.3,40,29.65,10.0,NW,9.2,18.4,N/A,,Clear,320,2013-05-15 21:15:00
5:36 PM,65.7,39.0,38,29.66,10.0,NW,10.4,20.7,N/A,,Clear,320,2013-05-15 21:36:00
5:56 PM,65.3,38.3,37,29.67,10.0,NW,8.1,20.7,N/A,,Clear,320,2013-05-15 21:56:00
6:15 PM,65.1,37.2,36,29.67,10.0,NW,9.2,20.7,N/A,,Clear,320,2013-05-15 22:15:00
6:36 PM,65.7,35.4,33,29.67,10.0,NW,10.4,23.0,N/A,,Clear,310,2013-05-15 22:36:00
6:55 PM,66.0,34.0,30,29.67,10.0,NW,11.5,23.0,N/A,,Clear,320,2013-05-15 22:55:00
7:16 PM,65.7,35.1,32,29.68,10.0,WNW,9.2,16.1,N/A,,Clear,300,2013-05-15 23:16:00
7:35 PM,65.7,34.9,32,29.68,10.0,NW,5.8,-,N/A,,Clear,310,2013-05-15 23:35:00
7:56 PM,64.4,35.4,34,29.68,10.0,WNW,11.5,19.6,N/A,,Clear,300,2013-05-15 23:56:00
8:16 PM,63.9,35.8,35,29.69,10.0,WNW,8.1,-,N/A,,Clear,300,2013-05-16 00:16:00
8:35 PM,62.2,36.7,39,29.69,10.0,Calm,Calm,-,N/A,,Clear,0,2013-05-16 00:35:00
8:56 PM,61.3,36.7,40,29.69,10.0,WNW,3.5,-,N/A,,Clear,300,2013-05-16 00:56:00
9:16 PM,58.5,38.3,47,29.70,10.0,Calm,Calm,-,N/A,,Clear,0,2013-05-16 01:16:00
9:35 PM,58.8,38.3,47,29.70,10.0,Calm,Calm,-,N/A,,Clear,0,2013-05-16 01:35:00
9:56 PM,61.2,37.6,42,29.70,10.0,Calm,Calm,-,N/A,,Clear,0,2013-05-16 01:56:00
10:15 PM,60.8,37.8,42,29.70,10.0,West,3.5,-,N/A,,Clear,260,2013-05-16 02:15:00
10:35 PM,60.4,37.9,43,29.70,10.0,SW,3.5,-,N/A,,Clear,220,2013-05-16 02:35:00
10:56 PM,55.6,39.2,54,29.71,10.0,Calm,Calm,-,N/A,,Clear,0,2013-05-16 02:56:00
11:15 PM,54.5,39.2,56,29.71,10.0,Calm,Calm,-,N/A,,Clear,0,2013-05-16 03:15:00
11:36 PM,49.6,40.3,70,29.71,10.0,WSW,3.5,-,N/A,,Clear,240,2013-05-16 03:36:00
11:56 PM,47.1,39.6,75,29.71,10.0,WSW,3.5,-,N/A,,Clear,240,2013-05-16 03:56:00